Year,Month,Day,Hour,Minute,Value (Times are PST for temperature in C)
2011,09,17,08,56,12.50
2011,09,17,08,57,12.50
2011,09,17,08,58,12.60
2011,09,17,08,59,12.60
2011,09,17,09,00,12.60
2011,09,17,09,01,12.70
2011,09,17,09,02,12.70
2011,09,17,09,03,12.80
2011,09,17,09,04,12.80
2011,09,17,09,05,12.80
2011,09,17,09,06,12.80
2011,09,17,09,07,12.90
2011,09,17,09,08,12.90
2011,09,17,09,09,12.90
2011,09,17,09,10,13.00
2011,09,17,09,11,13.00
2011,09,17,09,12,13.00
2011,09,17,09,13,13.00
2011,09,17,09,14,13.00
2011,09,17,09,15,13.00
2011,09,17,09,16,13.10
2011,09,17,09,17,13.10
2011,09,17,09,18,13.10
2011,09,17,09,19,13.10
2011,09,17,09,20,13.10
2011,09,17,09,21,13.20
2011,09,17,09,22,13.20
2011,09,17,09,23,13.20
2011,09,17,09,24,13.20
2011,09,17,09,25,13.20
2011,09,17,09,26,13.20
2011,09,17,09,27,13.30
2011,09,17,09,28,13.30
2011,09,17,09,29,13.30
2011,09,17,09,30,13.30
2011,09,17,09,31,13.30
2011,09,17,09,32,13.40
2011,09,17,09,33,13.40
2011,09,17,09,34,13.40
2011,09,17,09,35,13.50
2011,09,17,09,36,13.50
2011,09,17,09,37,13.60
2011,09,17,09,38,13.60
2011,09,17,09,39,13.60
2011,09,17,09,40,13.70
2011,09,17,09,41,13.70
2011,09,17,09,42,13.60
2011,09,17,09,43,13.60
2011,09,17,09,44,13.60
2011,09,17,09,45,13.60
2011,09,17,09,46,13.60
2011,09,17,09,47,13.60
2011,09,17,09,48,13.60
2011,09,17,09,49,13.60
2011,09,17,09,50,13.60
2011,09,17,09,51,13.60
2011,09,17,09,52,13.60
2011,09,17,09,53,13.60
2011,09,17,09,54,13.60
2011,09,17,09,55,13.60
2011,09,17,09,56,13.60
2011,09,17,09,57,13.60
2011,09,17,09,58,13.70
2011,09,17,09,59,13.70
2011,09,17,10,00,13.70
2011,09,17,10,01,13.70
2011,09,17,10,02,13.70
2011,09,17,10,03,13.70
2011,09,17,10,04,13.70
2011,09,17,10,05,13.70
2011,09,17,10,06,13.80
2011,09,17,10,07,13.80
2011,09,17,10,08,13.90
2011,09,17,10,09,13.90
2011,09,17,10,10,13.90
2011,09,17,10,11,13.90
2011,09,17,10,12,13.90
2011,09,17,10,13,14.00
2011,09,17,10,14,14.00
2011,09,17,10,15,14.00
2011,09,17,10,16,14.00
2011,09,17,10,17,14.00
2011,09,17,10,18,14.00
2011,09,17,10,19,14.00
2011,09,17,10,20,14.00
2011,09,17,10,21,14.00
2011,09,17,10,22,14.00
2011,09,17,10,23,14.00
2011,09,17,10,24,14.00
2011,09,17,10,25,14.00
2011,09,17,10,26,14.00
2011,09,17,10,27,14.10
2011,09,17,10,28,14.20
2011,09,17,10,29,14.20
2011,09,17,10,30,14.20
2011,09,17,10,31,14.20
2011,09,17,10,32,14.20
2011,09,17,10,33,14.30
2011,09,17,10,34,14.40
2011,09,17,10,35,14.40
2011,09,17,10,36,14.40
2011,09,17,10,37,14.50
2011,09,17,10,38,14.50
2011,09,17,10,39,14.50
2011,09,17,10,40,14.50
2011,09,17,10,41,14.60
2011,09,17,10,42,14.60
2011,09,17,10,43,14.70
2011,09,17,10,44,14.80
2011,09,17,10,45,14.80
2011,09,17,10,46,14.80
2011,09,17,10,47,14.80
2011,09,17,10,48,14.80
2011,09,17,10,49,14.90
2011,09,17,10,50,14.90
2011,09,17,10,51,15.00
2011,09,17,10,52,15.10
2011,09,17,10,53,15.20
2011,09,17,10,54,15.20
2011,09,17,10,55,15.30
2011,09,17,10,56,15.30
2011,09,17,10,57,15.30
2011,09,17,10,58,15.30
2011,09,17,10,59,15.30
2011,09,17,11,00,15.30
2011,09,17,11,01,15.30
2011,09,17,11,02,15.30
2011,09,17,11,03,15.30
2011,09,17,11,04,15.30
2011,09,17,11,05,15.30
2011,09,17,11,06,15.30
2011,09,17,11,07,15.40
2011,09,17,11,08,15.40
2011,09,17,11,09,15.30
2011,09,17,11,10,15.30
2011,09,17,11,11,15.50
2011,09,17,11,12,15.50
2011,09,17,11,13,15.60
2011,09,17,11,14,15.60
2011,09,17,11,15,15.60
2011,09,17,11,16,15.60
2011,09,17,11,17,15.70
2011,09,17,11,18,15.70
2011,09,17,11,19,15.80
2011,09,17,11,20,15.90
2011,09,17,11,21,16.00
2011,09,17,11,22,16.10
2011,09,17,11,23,16.10
2011,09,17,11,24,16.10
2011,09,17,11,25,16.10
2011,09,17,11,26,16.10
2011,09,17,11,27,16.10
2011,09,17,11,28,16.10
2011,09,17,11,29,16.10
2011,09,17,11,30,16.10
2011,09,17,11,31,16.10
2011,09,17,11,32,16.20
2011,09,17,11,33,16.20
2011,09,17,11,34,16.30
2011,09,17,11,35,16.30
2011,09,17,11,36,16.40
2011,09,17,11,37,16.40
2011,09,17,11,38,16.50
2011,09,17,11,39,16.60
2011,09,17,11,40,16.60
2011,09,17,11,41,16.60
2011,09,17,11,42,16.60
2011,09,17,11,43,16.60
2011,09,17,11,44,16.60
2011,09,17,11,45,16.60
2011,09,17,11,46,16.60
2011,09,17,11,47,16.60
2011,09,17,11,48,16.60
2011,09,17,11,49,16.60
2011,09,17,11,50,16.70
2011,09,17,11,51,16.70
2011,09,17,11,52,16.70
2011,09,17,11,53,16.80
2011,09,17,11,54,16.80
2011,09,17,11,55,16.70
2011,09,17,11,56,16.70
2011,09,17,11,57,16.70
2011,09,17,11,58,16.80
2011,09,17,11,59,16.80
2011,09,17,12,00,16.80
2011,09,17,12,01,16.80
2011,09,17,12,02,16.90
2011,09,17,12,03,16.90
2011,09,17,12,04,16.80
2011,09,17,12,05,16.80
2011,09,17,12,06,16.80
2011,09,17,12,07,16.70
2011,09,17,12,08,16.80
2011,09,17,12,09,16.90
2011,09,17,12,10,17.00
2011,09,17,12,11,17.10
2011,09,17,12,12,17.10
2011,09,17,12,13,17.10
2011,09,17,12,14,17.10
2011,09,17,12,15,17.20
2011,09,17,12,16,17.30
2011,09,17,12,17,17.40
2011,09,17,12,18,17.40
2011,09,17,12,19,17.50
2011,09,17,12,20,17.60
2011,09,17,12,21,17.60
2011,09,17,12,22,17.60
2011,09,17,12,23,17.60
2011,09,17,12,24,17.60
2011,09,17,12,25,17.70
2011,09,17,12,26,17.70
2011,09,17,12,27,17.60
2011,09,17,12,28,17.50
2011,09,17,12,29,17.50
2011,09,17,12,30,17.40
2011,09,17,12,31,17.30
2011,09,17,12,32,17.30
2011,09,17,12,33,17.30
2011,09,17,12,34,17.40
2011,09,17,12,35,17.40
2011,09,17,12,36,17.40
2011,09,17,12,37,17.40
2011,09,17,12,38,17.50
2011,09,17,12,39,17.50
2011,09,17,12,40,17.50
2011,09,17,12,41,17.50
2011,09,17,12,42,17.40
2011,09,17,12,43,17.40
2011,09,17,12,44,17.30
2011,09,17,12,45,17.30
2011,09,17,12,46,17.30
2011,09,17,12,47,17.30
2011,09,17,12,48,17.30
2011,09,17,12,49,17.40
2011,09,17,12,50,17.50
2011,09,17,12,51,17.40
2011,09,17,12,52,17.40
2011,09,17,12,53,17.40
2011,09,17,12,54,17.40
2011,09,17,12,55,17.50
2011,09,17,12,56,17.50
2011,09,17,12,57,17.40
2011,09,17,12,58,17.50
2011,09,17,12,59,17.50
2011,09,17,13,00,17.50
2011,09,17,13,01,17.40
2011,09,17,13,02,17.50
2011,09,17,13,03,17.50
2011,09,17,13,04,17.50
2011,09,17,13,05,17.50
2011,09,17,13,06,17.40
2011,09,17,13,07,17.40
2011,09,17,13,08,17.40
2011,09,17,13,09,17.40
2011,09,17,13,10,17.40
2011,09,17,13,11,17.50
2011,09,17,13,12,17.50
2011,09,17,13,13,17.60
2011,09,17,13,14,17.60
2011,09,17,13,15,17.60
2011,09,17,13,16,17.60
2011,09,17,13,17,17.60
2011,09,17,13,18,17.60
2011,09,17,13,19,17.60
2011,09,17,13,20,17.50
2011,09,17,13,21,17.50
2011,09,17,13,22,17.50
2011,09,17,13,23,17.50
2011,09,17,13,24,17.50
2011,09,17,13,25,17.40
2011,09,17,13,26,17.40
2011,09,17,13,27,17.40
2011,09,17,13,28,17.30
2011,09,17,13,29,17.30
2011,09,17,13,30,17.30
2011,09,17,13,31,17.30
2011,09,17,13,32,17.30
2011,09,17,13,33,17.30
2011,09,17,13,34,17.30
2011,09,17,13,35,17.30
2011,09,17,13,36,17.30
2011,09,17,13,37,17.30
2011,09,17,13,38,17.30
2011,09,17,13,39,17.30
2011,09,17,13,40,17.40
2011,09,17,13,41,17.40
2011,09,17,13,42,17.30
2011,09,17,13,43,17.20
2011,09,17,13,44,17.20
2011,09,17,13,45,17.20
2011,09,17,13,46,17.20
2011,09,17,13,47,17.20
2011,09,17,13,48,17.20
2011,09,17,13,49,17.10
2011,09,17,13,50,17.00
2011,09,17,13,51,17.00
2011,09,17,13,52,17.00
2011,09,17,13,53,17.00
2011,09,17,13,54,17.00
2011,09,17,13,55,16.90
2011,09,17,13,56,16.90
2011,09,17,13,57,16.90
2011,09,17,13,58,16.80
2011,09,17,13,59,16.80
2011,09,17,14,00,16.70
2011,09,17,14,01,16.70
2011,09,17,14,02,16.70
2011,09,17,14,03,16.70
2011,09,17,14,04,16.60
2011,09,17,14,05,16.60
2011,09,17,14,06,16.50
2011,09,17,14,07,16.40
2011,09,17,14,08,16.30
2011,09,17,14,09,16.20
2011,09,17,14,10,16.10
2011,09,17,14,11,16.10
2011,09,17,14,12,16.00
2011,09,17,14,13,16.00
2011,09,17,14,14,15.90
2011,09,17,14,15,15.80
2011,09,17,14,16,15.80
2011,09,17,14,17,15.80
2011,09,17,14,18,15.80
2011,09,17,14,19,15.80
2011,09,17,14,20,15.80
2011,09,17,14,21,15.80
2011,09,17,14,22,15.80
2011,09,17,14,23,15.80
2011,09,17,14,24,15.90
2011,09,17,14,25,15.90
2011,09,17,14,26,15.90
2011,09,17,14,27,15.80
2011,09,17,14,28,15.80
2011,09,17,14,29,15.70
2011,09,17,14,30,15.60
2011,09,17,14,31,15.60
2011,09,17,14,32,15.60
2011,09,17,14,33,15.60
2011,09,17,14,34,15.60
2011,09,17,14,35,15.50
2011,09,17,14,36,15.50
2011,09,17,14,37,15.40
2011,09,17,14,38,15.40
2011,09,17,14,39,15.40
2011,09,17,14,40,15.40
2011,09,17,14,41,15.40
2011,09,17,14,42,15.40
2011,09,17,14,43,15.40
2011,09,17,14,44,15.40
2011,09,17,14,45,15.40
2011,09,17,14,46,15.30
2011,09,17,14,47,15.30
2011,09,17,14,48,15.30
2011,09,17,14,49,15.30
2011,09,17,14,50,15.30
2011,09,17,14,51,15.30
2011,09,17,14,52,15.30
2011,09,17,14,53,15.40
2011,09,17,14,54,15.40
2011,09,17,14,55,15.40
2011,09,17,14,56,15.50
2011,09,17,14,57,15.50
2011,09,17,14,58,15.50
2011,09,17,14,59,15.50
2011,09,17,15,00,15.50
2011,09,17,15,01,15.50
2011,09,17,15,02,15.60
2011,09,17,15,03,15.70
2011,09,17,15,04,15.70
2011,09,17,15,05,15.70
2011,09,17,15,06,15.70
2011,09,17,15,07,15.80
2011,09,17,15,08,15.70
2011,09,17,15,09,15.70
2011,09,17,15,10,15.70
2011,09,17,15,11,15.70
2011,09,17,15,12,15.70
2011,09,17,15,13,15.70
2011,09,17,15,14,15.80
2011,09,17,15,15,15.70
2011,09,17,15,16,15.60
2011,09,17,15,17,15.70
2011,09,17,15,18,15.70
2011,09,17,15,19,15.70
2011,09,17,15,20,15.60
2011,09,17,15,21,15.50
2011,09,17,15,22,15.50
2011,09,17,15,23,15.50
2011,09,17,15,24,15.50
2011,09,17,15,25,15.50
2011,09,17,15,26,15.50
2011,09,17,15,27,15.40
2011,09,17,15,28,15.50
2011,09,17,15,29,15.50
2011,09,17,15,30,15.50
2011,09,17,15,31,15.40
2011,09,17,15,32,15.30
2011,09,17,15,33,15.30
2011,09,17,15,34,15.30
2011,09,17,15,35,15.30
2011,09,17,15,36,15.20
2011,09,17,15,37,15.20
2011,09,17,15,38,15.20
2011,09,17,15,39,15.20
2011,09,17,15,40,15.20
2011,09,17,15,41,15.20
2011,09,17,15,42,15.20
2011,09,17,15,43,15.30
2011,09,17,15,44,15.30
2011,09,17,15,45,15.30
2011,09,17,15,46,15.30
2011,09,17,15,47,15.30
2011,09,17,15,48,15.30
2011,09,17,15,49,15.30
2011,09,17,15,50,15.30
2011,09,17,15,51,15.30
2011,09,17,15,52,15.30
2011,09,17,15,53,15.30
2011,09,17,15,54,15.30
2011,09,17,15,55,15.20
2011,09,17,15,56,15.20
2011,09,17,15,57,15.10
2011,09,17,15,58,15.10
2011,09,17,15,59,15.10
2011,09,17,16,00,15.10
2011,09,17,16,01,15.10
2011,09,17,16,02,15.10
2011,09,17,16,03,15.10
2011,09,17,16,04,15.10
2011,09,17,16,05,15.20
2011,09,17,16,06,15.20
2011,09,17,16,07,15.30
2011,09,17,16,08,15.30
2011,09,17,16,09,15.20
2011,09,17,16,10,15.20
2011,09,17,16,11,15.20
2011,09,17,16,12,15.10
2011,09,17,16,13,15.10
2011,09,17,16,14,15.10
2011,09,17,16,15,15.10
2011,09,17,16,16,15.10
2011,09,17,16,17,15.10
2011,09,17,16,18,15.10
2011,09,17,16,19,15.20
2011,09,17,16,20,15.20
2011,09,17,16,21,15.20
2011,09,17,16,22,15.20
2011,09,17,16,23,15.30
2011,09,17,16,24,15.20
2011,09,17,16,25,15.20
2011,09,17,16,26,15.20
2011,09,17,16,27,15.20
2011,09,17,16,28,15.20
2011,09,17,16,29,15.10
2011,09,17,16,30,15.20
2011,09,17,16,31,15.20
2011,09,17,16,32,15.20
2011,09,17,16,33,15.20
2011,09,17,16,34,15.20
2011,09,17,16,35,15.30
2011,09,17,16,36,15.30
2011,09,17,16,37,15.30
2011,09,17,16,38,15.40
2011,09,17,16,39,15.40
2011,09,17,16,40,15.50
2011,09,17,16,41,15.50
2011,09,17,16,42,15.60
2011,09,17,16,43,15.60
2011,09,17,16,44,15.50
2011,09,17,16,45,15.50
2011,09,17,16,46,15.50
2011,09,17,16,47,15.50
2011,09,17,16,48,15.50
2011,09,17,16,49,15.50
2011,09,17,16,50,15.50
2011,09,17,16,51,15.50
2011,09,17,16,52,15.50
2011,09,17,16,53,15.50
2011,09,17,16,54,15.50
2011,09,17,16,55,15.50
2011,09,17,16,56,15.50
2011,09,17,16,57,15.40
2011,09,17,16,58,15.40
2011,09,17,16,59,15.40
2011,09,17,17,00,15.40
2011,09,17,17,01,15.40
2011,09,17,17,02,15.40
2011,09,17,17,03,15.40
2011,09,17,17,04,15.40
2011,09,17,17,05,15.40
2011,09,17,17,06,15.30
2011,09,17,17,07,15.30
2011,09,17,17,08,15.30
2011,09,17,17,09,15.30
2011,09,17,17,10,15.30
2011,09,17,17,11,15.30
2011,09,17,17,12,15.30
2011,09,17,17,13,15.30
2011,09,17,17,14,15.30
2011,09,17,17,15,15.30
2011,09,17,17,16,15.20
2011,09,17,17,17,15.20
2011,09,17,17,18,15.20
2011,09,17,17,19,15.20
2011,09,17,17,20,15.10
2011,09,17,17,21,15.10
2011,09,17,17,22,15.10
2011,09,17,17,23,15.10
2011,09,17,17,24,15.10
2011,09,17,17,25,15.20
2011,09,17,17,26,15.20
2011,09,17,17,27,15.20
2011,09,17,17,28,15.20
2011,09,17,17,29,15.20
2011,09,17,17,30,15.20
2011,09,17,17,31,15.30
2011,09,17,17,32,15.30
2011,09,17,17,33,15.30
2011,09,17,17,34,15.30
2011,09,17,17,35,15.20
2011,09,17,17,36,15.20
2011,09,17,17,37,15.20
2011,09,17,17,38,15.10
2011,09,17,17,39,15.10
2011,09,17,17,40,15.00
2011,09,17,17,41,15.00
2011,09,17,17,42,15.00
2011,09,17,17,43,14.90
2011,09,17,17,44,14.90
2011,09,17,17,45,14.80
2011,09,17,17,46,14.80
2011,09,17,17,47,14.80
2011,09,17,17,48,14.80
2011,09,17,17,49,14.80
2011,09,17,17,50,14.80
2011,09,17,17,51,14.80
2011,09,17,17,52,14.80
2011,09,17,17,53,14.80
2011,09,17,17,54,14.80
